Weather History for KALB - June, 2013

Change the Weather History Date:

Sunday, June 23, 2013

  Actual Average Record
Temperature  
Mean Temperature 81 °F 69 °F  
Max Temperature 91 °F 80 °F 96 °F (1888)
Min Temperature 70 °F 59 °F 44 °F (1940)
Degree Days  
Heating Degree Days 0 1  
Month to date heating degree days 55 48  
Since 1 June heating degree days 55 48  
Since 1 July heating degree days 6316 6676  
Cooling Degree Days 16 5  
Month to date cooling degree days 64 77  
Year to date cooling degree days 113 107  
Since 1 June cooling degree days 64 77  
Growing Degree Days 30 (Base 50)    
Moisture  
Dew Point 65 °F    
Average Humidity 60    
Maximum Humidity 73    
Minimum Humidity 47    
Precipitation  
Precipitation 0.00 in 0.12 in 1.50 in (1887)
Month to date precipitation 5.40 2.94  
Year to date precipitation 20.14 17.72  
Sea Level Pressure  
Sea Level Pressure 30.05 in    
Wind  
Wind Speed 8 mph (South)    
Max Wind Speed 20 mph    
Max Gust Speed 30 mph    
Visibility 10 miles    
Events      
T = Trace of Precipitation, MM = Missing Value Source: NWS Daily Summary

Daily Weather History Graph

Daily Weather History Graph

Search for Another Location

Airport or City:

Trip Planner

Search our weather history database for the weather conditions in past years. The results will help you decide how hot, cold, wet, or windy it might be!

Date:

Astronomy

Jun. 23, 2013 Rise Set
Actual Time 5:17 AM EDT 8:37 PM EDT
Civil Twilight 4:42 AM EDT 9:12 PM EDT
Nautical Twilight 3:56 AM EDT 9:58 PM EDT
Astronomical Twilight 3:00 AM EDT 10:54 PM EDT
Moon 8:45 PM EDT (6/23) 5:33 AM EDT (6/23)
Length of Visible Light 16h 30m
Length of Day
15h 19m
Full, 100% of the Moon is Illuminated
Jun 23
Full
Jun 30
Last Quarter
Jul 8
New
Jul 15
First Quarter
Jul 22
Full

Hourly Weather History & Observations

Time (EDT) Temp. Heat Index Dew Point Humidity Pressure Visibility Wind Dir Wind Speed Gust Speed Precip Events Conditions
12:51 AM 73.9 °F - 63.0 °F 68% 30.11 in 10.0 mi South 13.8 mph 18.4 mph N/A   Overcast
1:51 AM 73.0 °F - 61.0 °F 66% 30.10 in 10.0 mi SSE 9.2 mph - N/A   Overcast
2:51 AM 72.0 °F - 60.1 °F 66% 30.09 in 10.0 mi South 11.5 mph - N/A   Overcast
3:51 AM 71.1 °F - 60.1 °F 68% 30.09 in 10.0 mi South 10.4 mph 18.4 mph N/A   Scattered Clouds
4:51 AM 70.0 °F - 60.1 °F 71% 30.09 in 10.0 mi South 11.5 mph - N/A   Mostly Cloudy
5:51 AM 70.0 °F - 61.0 °F 73% 30.10 in 10.0 mi South 8.1 mph - N/A   Mostly Cloudy
6:51 AM 71.1 °F - 62.1 °F 73% 30.12 in 10.0 mi South 6.9 mph - N/A   Scattered Clouds
7:51 AM 73.0 °F - 64.0 °F 73% 30.12 in 10.0 mi South 8.1 mph - N/A   Scattered Clouds
8:51 AM 75.0 °F - 64.9 °F 71% 30.12 in 10.0 mi SSE 8.1 mph - N/A   Scattered Clouds
9:51 AM 78.1 °F - 66.0 °F 66% 30.11 in 10.0 mi South 10.4 mph - N/A   Scattered Clouds
10:51 AM 81.0 °F 83.3 °F 66.9 °F 62% 30.09 in 10.0 mi South 8.1 mph - N/A   Scattered Clouds
11:51 AM 84.9 °F 88.2 °F 68.0 °F 57% 30.08 in 10.0 mi SSE 8.1 mph - N/A   Scattered Clouds
12:51 PM 88.0 °F 92.9 °F 70.0 °F 55% 30.04 in 10.0 mi South 8.1 mph - N/A   Scattered Clouds
1:51 PM 89.1 °F 94.1 °F 70.0 °F 53% 30.03 in 10.0 mi South 13.8 mph 19.6 mph N/A   Mostly Cloudy
2:51 PM 90.0 °F 95.4 °F 70.0 °F 52% 30.01 in 10.0 mi South 12.7 mph 21.9 mph N/A   Mostly Cloudy
3:51 PM 90.0 °F 95.4 °F 70.0 °F 52% 29.99 in 10.0 mi South 15.0 mph - N/A   Mostly Cloudy
4:51 PM 90.0 °F 94.5 °F 69.1 °F 50% 29.97 in 10.0 mi South 11.5 mph - N/A   Mostly Cloudy
5:51 PM 89.1 °F 92.1 °F 66.9 °F 48% 29.97 in 10.0 mi South 16.1 mph 21.9 mph N/A   Mostly Cloudy
6:21 PM 86.0 °F 87.3 °F 64.4 °F 48% 29.99 in 10.0 mi West 9.2 mph 29.9 mph N/A   Mostly Cloudy
6:51 PM 82.0 °F 83.0 °F 62.1 °F 51% 30.01 in 10.0 mi WNW 10.4 mph - N/A   Mostly Cloudy
7:51 PM 80.1 °F 81.5 °F 63.0 °F 56% 30.01 in 10.0 mi North 3.5 mph - N/A   Mostly Cloudy
8:51 PM 77.0 °F - 64.0 °F 64% 30.01 in 10.0 mi SSW 3.5 mph - N/A   Scattered Clouds
9:51 PM 75.9 °F - 64.0 °F 67% 30.03 in 10.0 mi Calm Calm - N/A   Scattered Clouds
10:51 PM 75.9 °F - 64.0 °F 67% 30.03 in 10.0 mi Calm Calm - N/A   Mostly Cloudy
11:51 PM 75.9 °F - 64.0 °F 67% 30.03 in 10.0 mi Calm Calm - N/A   Mostly Cloudy